sat.trackr.live / text

‹ back to catalog

STARLINK-33577

NORAD 62762 · 2025-015E

PAYLOAD ACTIVE UNKNOWN

§ Identity

Operator
Country
US
Launch date
2025-01-21
Launch site
AFWTR
Launch vehicle
Mass (kg)
RCS (m²)

Purposes: comms

External: N2YO · Heavens-Above · Gunter

§ Orbital elements

Epoch: 2026-09-21T20:50:45.728448Z

Period
94.01 min
Inclination
53.1597°
Eccentricity
0.0001862
Mean motion
15.31714907 rev/d
Perigee alt
469.4 km
Apogee alt
472.0 km
Semi-major
6,848.8 km
B*
3.3420e-4
RAAN
129.3327°
Arg perigee
126.8970°
Mean anomaly
233.2202°
Rev number
9,454

§ Raw data

STARLINK-335771 62762U 25015E   26264.86858482  .00010024  00000+0  33420-3 0  99962 62762  53.1597 129.3327 0001862 126.8970 233.2202 15.31714907 94546

JSON: /api/v1/satellites/62762 · /tle

For live sub-satellite position, see the globe view (requires WebGL).

§ Visibility from observer

Set your observer location to see the next 7 days of passes ≥ 10°. The values pass through the URL so the page stays shareable.

No JS? Fill the form by hand. The geolocation button needs JavaScript.